CW7217 Weather Reports


Display with metric or nautical units.
time (UTC)temp
F
wind
direction
speed
MPH
gust
MPH
rain 1hr
in
rain 24hr
in
rain mn
in
humidity
%
barometer
mb
20260510010056 87 0.0 0.0 0.00 0.00 0.00 32 1008.5
20260510004553 88 0.0 0.0 0.00 0.00 0.00 30 1008.6
20260510003055 89 0.0 0.0 0.00 0.00 0.00 30 1008.6
20260510001555 90 0.0 0.0 0.00 0.00 0.00 30 1008.6
20260510000101 91 0.0 0.0 0.00 0.00 0.00 28 1008.6
20260509234552 92 0.0 0.0 0.00 0.00 0.00 29 1008.6
20260509233053 93 0.0 0.0 0.00 0.00 0.00 28 1008.7
20260509231556 94 0.0 0.0 0.00 0.00 0.00 26 1008.8
20260509230058 95 0.0 0.0 0.00 0.00 0.00 27 1008.8
20260509224557 96 0.0 0.0 0.00 0.00 0.00 26 1008.9
20260509223056 97 0.0 0.0 0.00 0.00 0.00 26 1008.8
20260509221555 98 0.0 0.0 0.00 0.00 0.00 26 1009.0
20260509220055 97 0.0 0.0 0.00 0.00 0.00 27 1009.0
20260509214619 98 0.0 0.0 0.00 0.00 0.00 26 1009.1
20260509213054 98 0.0 0.0 0.00 0.00 0.00 25 1009.3
20260509211554 97 0.0 0.0 0.00 0.00 0.00 29 1009.4
20260509204552 98 0.0 0.0 0.00 0.00 0.00 27 1009.9
20260509203107 98 0.0 0.0 0.00 0.00 0.00 29 1010.0
20260509201553 97 0.0 0.0 0.00 0.00 0.00 30 1010.2
20260509200055 97 0.0 0.0 0.00 0.00 0.00 31 1010.4
20260509194556 97 0.0 0.0 0.00 0.00 0.00 33 1010.6
20260509193059 97 0.0 0.0 0.00 0.00 0.00 33 1011.0
20260509191603 95 0.0 0.0 0.00 0.00 0.00 35 1011.1
20260509190057 95 0.0 0.0 0.00 0.00 0.00 35 1011.2
20260509184600 95 0.0 0.0 0.00 0.00 0.00 35 1011.2
20260509183104 95 0.0 0.0 0.00 0.00 0.00 37 1011.4
20260509181557 94 0.0 0.0 0.00 0.00 0.00 38 1011.6
20260509180056 95 0.0 0.0 0.00 0.00 0.00 36 1011.7
20260509174620 94 0.0 0.0 0.00 0.00 0.00 38 1012.0
20260509173056 92 0.0 0.0 0.00 0.00 0.00 40 1012.1
20260509171553 91 0.0 0.0 0.00 0.00 0.00 42 1012.4
20260509170100 90 0.0 0.0 0.00 0.00 0.00 42 1012.6
20260509164555 89 0.0 0.0 0.00 0.00 0.00 44 1012.7
20260509163101 88 0.0 0.0 0.00 0.00 0.00 45 1012.8
20260509161602 86 0.0 0.0 0.00 0.00 0.00 49 1012.8
20260509160057 84 0.0 0.0 0.00 0.00 0.00 53 1012.8
20260509154555 82 0.0 0.0 0.00 0.00 0.00 56 1012.8
20260509153105 80 0.0 0.0 0.00 0.00 0.00 61 1012.8
20260509151555 78 0.0 0.0 0.00 0.00 0.00 64 1012.9
20260509150055 77 0.0 0.0 0.00 0.00 0.00 67 1012.9
20260509144557 76 0.0 0.0 0.00 0.00 0.00 69 1013.0
20260509143055 75 0.0 0.0 0.00 0.00 0.00 72 1013.0
20260509141554 73 0.0 0.0 0.00 0.00 0.00 76 1013.0
20260509140055 71 0.0 0.0 0.00 0.00 0.00 80 1013.1
20260509134554 69 0.0 0.0 0.00 0.00 0.00 84 1013.0
20260509133054 67 0.0 0.0 0.00 0.00 0.00 86 1013.2
20260509131555 66 0.0 0.0 0.00 0.00 0.00 87 1012.9
20260509130107 65 0.0 0.0 0.00 0.00 0.00 87 1012.9
20260509124557 65 0.0 0.0 0.00 0.00 0.00 86 1012.8
20260509123055 65 0.0 0.0 0.00 0.00 0.00 86 1012.6
20260509121614 64 0.0 0.0 0.00 0.00 0.00 86 1012.5
20260509120055 64 0.0 0.0 0.00 0.00 0.00 86 1012.5
20260509114600 64 0.0 0.0 0.00 0.00 0.00 85 1012.2
20260509113059 64 0.0 0.0 0.00 0.00 0.00 84 1012.1
20260509111555 64 0.0 0.0 0.00 0.00 0.00 84 1012.0
20260509110100 64 0.0 0.0 0.00 0.00 0.00 84 1011.9
20260509104555 64 0.0 0.0 0.00 0.00 0.00 82 1011.9
20260509103102 65 0.0 0.0 0.00 0.00 0.00 80 1012.1
20260509101604 65 0.0 0.0 0.00 0.00 0.00 79 1011.9
20260509100054 65 0.0 0.0 0.00 0.00 0.00 78 1011.8
20260509094604 65 0.0 0.0 0.00 0.00 0.00 77 1011.8
20260509093057 66 0.0 0.0 0.00 0.00 0.00 76 1012.0
20260509091602 67 0.0 0.0 0.00 0.00 0.00 74 1012.3
20260509090101 67 0.0 0.0 0.00 0.00 0.00 74 1012.1
20260509084602 67 0.0 0.0 0.00 0.00 0.00 74 1012.1
20260509083102 67 0.0 0.0 0.00 0.00 0.00 75 1012.4
20260509081558 67 0.0 0.0 0.00 0.00 0.00 75 1012.6
20260509080100 67 0.0 0.0 0.00 0.00 0.00 76 1013.0
20260509074605 68 0.0 0.0 0.00 0.00 0.00 78 1012.8
20260509073059 68 0.0 0.0 0.00 0.00 0.00 82 1013.5
20260509071552 70 0.0 0.0 0.00 0.00 0.00 85 1013.6
20260509070057 69 0.0 0.0 0.00 0.00 0.00 86 1013.6
20260509064554 69 0.0 0.0 0.00 0.00 0.00 86 1013.6
20260509063053 69 0.0 0.0 0.00 0.00 0.00 86 1012.0
20260509061555 69 0.0 0.0 0.00 0.00 0.00 85 1011.8
20260509060107 69 0.0 0.0 0.00 0.00 0.00 85 1011.8
20260509054553 70 0.0 0.0 0.00 0.00 0.00 84 1012.2
20260509053132 70 0.0 0.0 0.00 0.00 0.00 83 1012.0
20260509051601 71 0.0 0.0 0.00 0.00 0.00 83 1010.8
20260509050104 71 0.0 0.0 0.00 0.00 0.00 82 1010.8
20260509044656 71 0.0 0.0 0.00 0.00 0.00 81 1011.0
20260509043140 72 0.0 0.0 0.00 0.00 0.00 80 1010.8
20260509041559 72 0.0 0.0 0.00 0.00 0.00 79 1010.6
20260509034557 72 0.0 0.0 0.00 0.00 0.00 78 1010.3
20260509033058 73 0.0 0.0 0.00 0.00 0.00 77 1010.2
20260509031602 73 0.0 0.0 0.00 0.00 0.00 75 1010.1
20260509030112 74 0.0 0.0 0.00 0.00 0.00 73 1010.0
20260509024558 74 0.0 0.0 0.00 0.00 0.00 72 1009.8
20260509023100 74 0.0 0.0 0.00 0.00 0.00 72 1009.8
20260509021602 75 0.0 0.0 0.00 0.00 0.00 70 1009.7
20260509020108 76 0.0 0.0 0.00 0.00 0.00 68 1009.5
20260509014558 77 0.0 0.0 0.00 0.00 0.00 65 1009.2
20260509013101 77 0.0 0.0 0.00 0.00 0.00 63 1009.3
20260509011601 78 0.0 0.0 0.00 0.00 0.00 61 1009.1